Location: Bats
(43.6587°N, 0.4584°W)
Time: 07:08:39
(UTC+00:00)

Meteor 2-10 Rocket - Pass Details

Date: 12 January 2026
Orbit: 733 x 881 km, 81.2° (Epoch: 10 February)

Event Time Altitude Azimuth Distance (km) Brightness Sun altitude
Rises 17:10:09 0° 346° (NNW) 3,379 6.7 -4.5°
Reaches altitude 10° 17:12:33 10° 343° (NNW) 2,462 6.1 -4.9°
Maximum altitude 17:18:05 63° 264° (W) 959 4.4 -5.8°
Drops below altitude 10° 17:23:44 10° 185° (S) 2,516 6.6 -6.8°
Sets 17:26:12 0° 182° (S) 3,458 7.2 -7.2°
